Regional Weather Roundup
Issued by NWS New Orleans/Baton Rouge, LA

Current Version | Previous Version | Text Only | Print | Product List | Glossary On
Versions: 1 2 3 4 5 6 7 8 9 10 11 12 13 14 15 16 17 18 19 20 21 22 23 24 25 26 27 28 29 30 31 32 33 34 35 36 37 38 39 40 41 42 43 44 45 46 47 48 49
737
ASUS44 KLIX 100310
RWRLIX
NEW ORLEANS REGIONAL WEATHER ROUNDUP
NATIONAL WEATHER SERVICE NEW ORLEANS LA
900 PM CST TUE FEB 09 2016

NOTE: "FAIR" INDICATES FEW OR NO CLOUDS BELOW 12,000 FEET WITH NO
      SIGNIFICANT WEATHER AND/OR OBSTRUCTIONS TO VISIBILITY.
      SKY/WX - SKY CONDITION AND SIGNIFICANT WEATHER.
      TMP - AIR TEMPERATURE.     DP    - DEWPOINT TEMPERATURE.
      RH  - RELATIVE HUMIDITY.   PRES  - PRESSURE.
      HI  - HEAT INDEX.          WCI   - WIND CHILL INDEX.

*  THESE STATIONS ARE NOT NWS OR FAA STATIONS AND ARE NOT UNDER
   NWS QUALITY CONTROL.

LAZ038-040-048-061>063-065>067-069-100400-
SOUTHEAST LOUISIANA

CITY           SKY/WX    TMP DP  RH WIND       PRES   REMARKS
N.O. AUDUBON     N/A     46  28  49 MISG        N/A
N.O. INTL ARPT CLEAR     46  23  40 W5        30.19R
N.O. LAKEFRONT CLEAR     50  40  68 W9        30.19R
N.O. DOWNTOWN*   N/A     52  23  32 MISG      30.20R
RESERVE*         N/A     43  31  62 CALM      30.19R
SLIDELL        CLEAR     40  25  55 CALM      30.18R
BATON ROUGE    PTCLDY    46  24  42 MISG      30.19R
BOOTHVILLE     CLEAR     46  37  71 W7        30.20R
BELLE CHASSE   CLEAR     39  25  57 CALM      30.19R
BOGALUSA*        N/A     37  28  71 CALM      30.18R
GALLIANO*      PTCLDY   N/A N/A N/A CALM      30.19S
NEW ROADS*       N/A     43  28  55 W6        30.20R
GONZALES*        N/A     50  23  35 NW6       30.19R
HAMMOND*       PTCLDY    39  28  65 CALM      30.18R
HOUMA*         CLEAR     40  34  78 CALM      30.20R
PORT FOURCHON* CLEAR     52  39  62 W9        30.21R

$$

MSZ070-080>082-100400-
SOUTHERN MISSISSIPPI

CITY           SKY/WX    TMP DP  RH WIND       PRES   REMARKS
MCCOMB         CLEAR     40  24  53 W5        30.15R
GULFPORT       CLEAR     41  23  48 W5        30.16R
BILOXI         PTCLDY    43  24  46 W2        30.15R
PASCAGOULA     CLEAR     36  27  69 W3        30.16R

$$

COASTAL OBSERVATIONS
LAKE AND NEARSHORE STATIONS

STATION/POSITION TIME  TEMP    WIND        PRES    WAVE
                       AIR SEA DIR/SP/G            HT/PER
                 (UTC) (F)     (DEG/KT/KT) (MB)    (FT/S)
PASCAGOULA       0200   48     300/  7/  9 1020.0
WAVELAND YACHT   0200   49 52  280/  5/  7 1020.7
GRAND ISLE       0200   52 53  280/ 15/ 17 1021.9
NEW CANAL        0200   52 53  290/  5/  8 1020.8
SHELL BEACH      0200   52 51  290/ 12/ 13 1020.8

OFFSHORE STATIONS

STATION/POSITION TIME  TEMP    WIND        PRES    WAVE
                       AIR SEA DIR/SP/G            HT/PER
                 (UTC) (F)     (DEG/KT/KT) (MB)    (FT/S)

$$





USA.gov is the U.S. government's official web portal to all federal, state and local government web resources and services.